Back to catalog

TITAN 3C TRANSTAGE DEB

AliveVLEO
NORAD 3386·DEBRIS·🇺🇸 United States

Launched Oct 15, 1965 from Cape Canaveral Space Force Station

Loading…

Next Passes (next 24 hours)

TLE

FreshSource: Space-Track

Epoch: Sep 14, 2026, 06:35 UTC

1 03386U 65082MY  26257.27459722  .00002278  00000-0  18034-3 0  9999
2 03386  32.3720 341.9757 0005443   6.9342 353.1393 14.99010226259204

Track TITAN 3C TRANSTAGE DEB in real time with AllMySat

Download on the App Store